Flag for Kazakhstan Weather past 2 weeks in Aqtobe, Kazakhstan

Now
63 °F

Clear.


Feels Like: 63 °F
Forecast: 46 / 65 °F
Wind: 3 mph from North

Location: Aktjubinsk

Current Time: Sep 21, 2014 at 7:41:51 PM

Latest Report: Sep 21, 2014 at 7:00 PM


Visibility: 5 mi

Pressure: 30.15 "Hg

Humidity: 24%

Dew point: 25 °F

Location of AqtobeLocation

Historic Weather in Aqtobe — Graph

°F

Aqtobe temperature yesterday

Maximum temperature yesterday: 64 °F (at 4:30 PM)
Minimum temperature yesterday: 28 °F (at 7:00 AM)
Average temperature yesterday: 47 °F

Past Weeks' High & Low Weather Summary

 TemperatureHumidityPressure
High77 °F (Sep 14, 4:00 PM)81% (Sep 17, 6:30 AM)30.45 "Hg (Sep 17, 6:30 AM)
Low28 °F (Sep 19, 5:00 AM)12% (Sep 13, 12:30 PM)29.74 "Hg (Sep 16, 4:00 PM)
Average56 °F38%30.13 "Hg
* Reported Sep 6 7:00 PM — Sep 21 7:00 PM, Aqtobe, Weather by CustomWeather, © 2014

Note: Actual official high and low records may vary slightly from our data, if they occured in-between our weather recording intervals... More about our weather records

Advertising

Aqtobe weather history for previous 24 hours

 ConditionsComfort  
Time TempWeatherWind HumidityBarometerVisibility
7:00 PM
Sep 21
63 °FClear.3 mph24%30.15 "Hg5 mi
6:30 PM64 °FSunny.1 mph22%30.15 "Hg10 mi
6:00 PM66 °FSunny.1 mph21%30.15 "Hg10 mi
5:30 PM66 °FPassing clouds.3 mph21%30.15 "HgN/A
5:00 PM68 °FPassing clouds.3 mph18%30.15 "HgN/A
4:30 PM68 °FPassing clouds.3 mph18%30.15 "HgN/A
4:00 PM68 °FSunny.3 mph18%30.15 "Hg10 mi
3:30 PM68 °FPassing clouds.6 mph18%30.18 "HgN/A
3:00 PM68 °FSunny.6 mph18%30.18 "Hg10 mi
2:30 PM68 °FPassing clouds.3 mph18%30.18 "HgN/A
2:00 PM66 °FPassing clouds.3 mph19%30.18 "HgN/A
1:30 PM66 °FSunny.3 mph21%30.21 "Hg10 mi
1:00 PM66 °FPassing clouds.3 mph21%30.21 "HgN/A
12:30 PM64 °FPassing clouds.3 mph22%30.21 "HgN/A
12:00 PM63 °FSunny.1 mph25%30.24 "Hg10 mi
11:30 AM61 °FPassing clouds.3 mph27%30.24 "HgN/A
11:00 AM61 °FPassing clouds.3 mph27%30.24 "HgN/A
10:30 AM55 °FClear.3 mph33%30.24 "Hg5 mi
10:00 AM50 °FClear.1 mph37%30.27 "HgN/A
9:30 AM48 °FClear.1 mph40%30.27 "Hg4 mi
9:00 AM45 °FClear.1 mph46%30.27 "Hg4 mi
8:30 AM41 °FSunny.1 mph45%30.27 "Hg10 mi
8:00 AM36 °FSunny.1 mph56%30.27 "Hg10 mi
7:30 AM30 °FSunny.3 mph59%30.27 "Hg10 mi
7:00 AM34 °FSunny.1 mph56%30.27 "Hg10 mi
6:30 AM32 °FClear.1 mph60%30.27 "Hg10 mi
6:00 AM30 °FClear.1 mph55%30.27 "Hg10 mi
5:30 AM32 °FClear.1 mph60%30.24 "Hg10 mi
5:00 AM32 °FClear.1 mph51%30.24 "Hg10 mi
4:30 AM36 °FClear.No wind52%30.24 "Hg10 mi
4:00 AM34 °FClear.1 mph51%30.27 "Hg10 mi
3:30 AM32 °FClear.1 mph51%30.27 "Hg10 mi
3:00 AM36 °FClear.No wind48%30.27 "Hg10 mi
2:30 AM32 °FClear.1 mph51%30.27 "Hg10 mi
1:30 AM37 °FClear.3 mph45%30.27 "Hg10 mi
1:00 AM37 °FClear.3 mph45%30.27 "Hg10 mi
12:30 AM39 °FClear.1 mph42%30.27 "Hg10 mi
12:00 AM39 °FClear.1 mph48%30.27 "Hg10 mi
11:30 PM
Sep 20
39 °FClear.3 mph45%30.27 "Hg10 mi
11:00 PM41 °FClear.1 mph45%30.27 "Hg10 mi
10:30 PM45 °FClear.1 mph49%30.27 "Hg10 mi
Weather by CustomWeather, © 2014

See weather overviewHow to use our weather pages